This is the latest recevied weather packets stored in our database for station/object W5MAI. If no packets are shown the sender has not sent any weather packets the latest 10 day(s).
| Time | Temp. | Humidity | Pressure | Rain* | Wind** | Luminosity | Snow |
|---|---|---|---|---|---|---|---|
| 1788542015 | 29.44° C | 74% | 1016.9 hPa | 0 mm | - | 445 W/m² | - |
| 1788541430 | 28.89° C | 75% | 1017 hPa | 0 mm | - | 357 W/m² | - |
| 1788540835 | 28.89° C | 76% | 1017 hPa | 0 mm | - | 292 W/m² | - |
| 1788540234 | 28.89° C | 76% | 1017.1 hPa | 0 mm | - | 253 W/m² | - |
| 1788539652 | 28.33° C | 77% | 1017.1 hPa | 0 mm | - | 272 W/m² | - |
| 1788539051 | 28.33° C | 77% | 1017.2 hPa | 0 mm | - | 301 W/m² | - |
| 1788538403 | 28.33° C | 78% | 1017.3 hPa | 0 mm | - | 311 W/m² | - |
| 1788537831 | 27.78° C | 80% | 1017.2 hPa | 0 mm | - | 260 W/m² | - |
| 1788537261 | 27.78° C | 81% | 1017.3 hPa | 0 mm | - | 262 W/m² | - |
| 1788536618 | 27.78° C | 81% | 1017.3 hPa | 0 mm | - | 199 W/m² | - |
| 1788536033 | 27.22° C | 82% | 1017.2 hPa | 0 mm | - | 199 W/m² | - |
| 1788535455 | 27.22° C | 82% | 1017.1 hPa | 0 mm | - | 185 W/m² | - |
| 1788532404 | 26.67° C | 86% | 1016.9 hPa | 0 mm | - | 125 W/m² | - |
| 1788531834 | 26.67° C | 87% | 1016.7 hPa | 0 mm | - | 118 W/m² | - |
| 1788531253 | 26.11° C | 87% | 1016.8 hPa | 0 mm | - | 149 W/m² | - |
| 1788530659 | 26.11° C | 87% | 1016.7 hPa | 0 mm | - | 127 W/m² | - |
| 1788530055 | 26.11° C | 88% | 1016.6 hPa | 0 mm | - | 83 W/m² | - |
| 1788529453 | 26.11° C | 88% | 1016.5 hPa | 0 mm | - | 62 W/m² | - |
| 1788528813 | 26.11° C | 88% | 1016.4 hPa | 0 mm | - | 49 W/m² | - |
| 1788528218 | 25.56° C | 88% | 1016.2 hPa | 0 mm | - | 69 W/m² | - |
| 1788527647 | 25.56° C | 89% | 1016.3 hPa | 0 mm | - | 33 W/m² | - |
| 1788527003 | 25.56° C | 89% | 1016.3 hPa | 0 mm | - | 40 W/m² | - |
| 1788525831 | 25.56° C | 88% | 1015.9 hPa | 0 mm | - | 18 W/m² | - |
| 1788525260 | 25.56° C | 88% | 1015.9 hPa | 0 mm | - | 7 W/m² | - |
| 1788524616 | 25.56° C | 87% | 1015.8 hPa | 0 mm | - | 0 W/m² | - |
* Rain latest hour (hover to see other rain measurements)
** Current wind speed in m/s (hover to see current wind gust speed)